This demonstration page uses our WeatherBlox Daily Observations layout. Learn more.

Left ArrowRight Arrow

44.8408, -93.29828

Hourly Observations for November 18, 2016

Temp ( °F °C ) Dew Point ( °F °C ) Humidity (%) Winds ( mph kmh ) Pressure ( in mb ) Visibility ( mi km ) Precip ( " mm )
12:53 am 00:53 Mostly Cloudy 47 8.3 40 4.4 77 77 N 15 24 29.68 1005 10 16 0.00 0.00
1:15 am 01:15 Cloudy 47 8.3 41 5 80 80 N 15 24 29.71 1006 10 16 0.00 0.00
1:53 am 01:53 Cloudy 47 8.3 41 5 80 80 N 12 19 29.68 1005 10 16 0.00 0.00
2:53 am 02:53 Cloudy 48 8.9 41 5 77 77 NNE 15 24 29.66 1005 10 16 0.00 0.00
3:12 am 03:12 Cloudy 47 8.3 41 5 80 80 NNE 14 22 29.68 1005 10 16 0.00 0.00
3:53 am 03:53 Cloudy 47 8.3 41 5 80 80 NNE 15 24 29.65 1004 10 16 0.00 0.00
4:53 am 04:53 Cloudy 47 8.3 41 5 80 80 NE 13 20 29.64 1004 10 16 0.00 0.00
5:53 am 05:53 Cloudy 48 8.9 42 5.6 80 80 NE 14 22 29.60 1002 10 16 0.00 0.00
6:53 am 06:53 Cloudy 48 8.9 42 5.6 80 80 NNE 14 22 29.58 1002 9 14 0.00 0.00
7:18 am 07:18 Cloudy 48 9 43 6 82 82 NE 15 24 29.56 1001 8 13 0.00 0.00
7:46 am 07:46 Cloudy with Nearby Thunderstorms 46 8 45 7 93 93 NE 10 17 29.56 1001 4 6 0.00 0.00
7:53 am 07:53 Cloudy with Nearby Thunderstorms 47 8.3 44 6.7 90 90 NNE 13 20 29.53 1000 4 6 0.06 1.52
8:05 am 08:05 Cloudy with Light Rain 47 8.3 44 6.7 90 90 NE 16 26 29.53 1000 6 10 0.01 0.25
8:27 am 08:27 Cloudy with Nearby Thunderstorms 47 8.3 44 6.7 90 90 NE 17 28 29.50 999 4 6 0.02 0.51
8:53 am 08:53 Cloudy with Strong Thunderstorms 47 8.3 44 6.7 90 90 VRB 7 11 29.51 999 4 6 0.06 1.52
8:57 am 08:57 Cloudy with Strong Thunderstorms 46 7.8 44 6.7 93 93 NNE 14 22 29.53 1000 2 3 0.07 1.78
9:13 am 09:13 Cloudy with Nearby Thunderstorms 46 7.8 44 6.7 93 93 NE 9 15 29.50 999 3 4 0.21 5.33
9:24 am 09:24 Cloudy with Nearby Thunderstorms 46 8 45 7 93 93 N 10 17 29.50 999 3 5 0.00 0.00
9:39 am 09:39 Cloudy with Nearby Thunderstorms 46 7.8 43 6.1 89 89 NNE 15 24 29.47 998 2 3 0.32 8.13
9:45 am 09:45 Cloudy with Rain 46 7.8 43 6.1 89 89 N 10 17 29.50 999 2 3 0.35 8.89
9:53 am 09:53 Cloudy with Rain 46 7.8 43 6.1 89 89 N 12 19 29.48 998 2 3 0.37 9.40
10:20 am 10:20 Cloudy with Rain 44 6.7 42 5.6 93 93 N 16 26 29.50 999 3 5 0.08 2.03
10:26 am 10:26 Cloudy with Heavy Rain 45 7 43 6 93 93 N 20 31 29.47 998 2 3 0.00 0.00
10:37 am 10:37 Cloudy with Light Rain 44 6.7 42 5.6 93 93 N 21 33 29.44 997 3 5 0.14 3.56
10:43 am 10:43 Cloudy with Light Rain 44 6.7 41 5 89 89 N 21 33 29.44 997 8 13 0.15 3.81
10:53 am 10:53 Cloudy with Light Rain 44 6.7 41 5 89 89 N 18 30 29.45 997 10 16 0.15 3.81
11:05 am 11:05 Cloudy with Light Rain 43 6.1 40 4.4 89 89 N 22 35 29.47 998 10 16 0.00 0.03
11:39 am 11:39 Cloudy 42 5.6 39 3.9 89 89 NNE 21 33 29.44 997 10 16 0.00 0.03
11:53 am 11:53 Cloudy 42 5.6 39 3.9 89 89 N 16 26 29.42 996 10 16 0.00 0.03
12:45 pm 12:45 Cloudy with Rain 40 4.4 38 3.3 93 93 NNW 15 24 29.47 998 2 3 0.04 1.02
12:53 pm 12:53 Cloudy with Rain/Snow 39 3.9 37 2.8 93 93 NNW 21 33 29.45 997 2 2 0.05 1.27
1:01 pm 13:01 Cloudy with Light Rain/Snow 38 3.3 36 2.2 93 93 NNW 23 37 29.47 998 2 2 0.01 0.25
1:14 pm 13:14 Cloudy with Light Rain/Snow 37 3 36 2 93 93 NNW 23 37 29.47 998 2 3 0.00 0.00
1:26 pm 13:26 Cloudy with Light Rain/Snow 37 3 34 1 87 87 NNW 26 43 29.50 999 4 6 0.00 0.00
1:38 pm 13:38 Cloudy with Light Rain/Snow 36 2.2 33 0.6 89 89 NNW 22 35 29.50 999 6 10 0.01 0.25
1:53 pm 13:53 Cloudy with Light Rain/Snow 35 1.7 32 0 89 89 NNW 25 41 29.51 999 5 8 0.01 0.25
2:08 pm 14:08 Cloudy with Light Rain/Snow 34 1 30 -1 87 87 NNW 23 37 29.56 1001 2 3 0.00 0.00
2:15 pm 14:15 Cloudy with Light Rain/Snow 34 1.1 31 -0.6 89 89 NW 28 44 29.56 1001 2 2 0.01 0.25
2:20 pm 14:20 Windy with Snow Likely 33 0.6 31 -0.6 92 92 NW 28 44 29.56 1001 1 1 0.02 0.51
2:42 pm 14:42 Windy with Snow Likely 34 1 30 -1 87 87 NNW 28 44 29.59 1002 1 2 0.00 0.00
2:49 pm 14:49 Windy with Snow Likely 34 1 30 -1 87 87 NNW 29 46 29.59 1002 1 2 0.05 1.27
2:53 pm 14:53 Windy with Snow Likely 33 0.6 30 -1.1 89 89 NW 31 50 29.58 1002 2 2 0.05 1.27
3:15 pm 15:15 Windy with Snow Likely 33 0.6 30 -1.1 89 89 NNW 31 50 29.65 1004 1 2 0.00 0.03
3:22 pm 15:22 Windy with Snow Likely 34 1 30 -1 87 87 NNW 36 57 29.65 1004 1 1 0.00 0.00
3:41 pm 15:41 Windy with Snow Likely 33 0.6 30 -1.1 89 89 NNW 30 48 29.68 1005 1 1 0.02 0.51
3:53 pm 15:53 Windy with Snow Likely 33 0.6 30 -1.1 89 89 NNW 36 57 29.65 1004 1 1 0.02 0.51
4:00 pm 16:00 Windy with Snow Likely 34 1 28 -2 81 81 NNW 36 57 29.71 1006 1 1 0.00 0.00
4:03 pm 16:03 Windy with Snow Likely 33 0.6 29 -1.7 85 85 NNW 30 48 29.71 1006 1 2 0.00 0.03
4:10 pm 16:10 Windy with Snow Likely 34 1 30 -1 87 87 NNW 30 48 29.71 1006 2 3 0.00 0.00
4:16 pm 16:16 Windy with Snow Likely 34 1 28 -2 81 81 N 36 57 29.71 1006 3 5 0.00 0.00
4:35 pm 16:35 Cloudy 33 0.6 30 -1.1 89 89 NNW 25 41 29.77 1008 8 13 0.01 0.25
4:50 pm 16:50 Windy with Snow Likely 34 1 30 -1 87 87 NNW 24 39 29.77 1008 3 4 0.01 0.25
4:53 pm 16:53 Windy with Snow Likely 33 0.6 30 -1.1 89 89 NW 21 33 29.74 1007 3 4 0.01 0.25
5:18 pm 17:18 Windy with Snow Likely 34 1 30 -1 87 87 NNW 23 37 29.80 1009 3 5 0.00 0.00
5:53 pm 17:53 Windy with Snow Likely 33 0.6 29 -1.7 85 85 NNW 26 43 29.81 1009 3 5 0.01 0.25
6:53 pm 18:53 Windy with Snow Likely 33 0.6 28 -2.2 82 82 NNW 26 43 29.86 1011 7 11 0.00 0.03
7:35 pm 19:35 Windy with Snow Likely 32 0 28 -2.2 85 85 NNW 24 39 29.94 1014 3 4 0.00 0.03
7:45 pm 19:45 Windy with Snow Likely 32 0 28 -2.2 85 85 NW 25 41 29.94 1014 3 5 0.00 0.03
7:53 pm 19:53 Windy with Snow Likely 33 0.6 28 -2.2 82 82 NNW 23 37 29.92 1013 3 5 0.00 0.03
8:53 pm 20:53 Windy with Snow Likely 32 0 27 -2.8 82 82 NW 24 39 29.98 1015 6 10 0.01 0.25
9:53 pm 21:53 Windy with Snow Likely 32 0 27 -2.8 82 82 NW 24 39 30.01 1016 9 14 0.00 0.03
10:53 pm 22:53 Mostly Cloudy 32 0 25 -3.9 75 75 NW 28 44 30.05 1018 9 14 0.00 0.03
11:53 pm 23:53 Cloudy 31 -0.6 24 -4.4 76 76 NW 24 39 30.10 1019 10 16 0.00 0.00

Powered by AerisWeather